[[{"header":{"parameterUnit":"m.s-1","parameterCategory":1,"la1":30.2991,"la2":30.254,"lo1":-89.0895,"lo2":-89.0444,"dy":0.0017,"dx":0.0017,"nx":28,"ny":28,"refTime":"2025-11-21T09:00:00:Z","depth":0,"parameterNumber":2,"parameterNumberName":"U-component_of_WINDS"},"data":[0,0,0,0,0,0,0,0,0,0,0,0,0,0,0,0,0,0,0,0,0,0,0,0,0,0,0,0,0,0,0,0,0,0,0,0,0,0,0,0,0,0,0,0,0,0,0,0,0,0,0,0,0,0,0,0,0,0,1.0473,1.0474,0,1.0596,1.0598,1.0599,1.0633,1.0632,1.0632,1.0631,1.0758,1.0762,1.0766,0,0,0,0,0,0,0,0,0,0,0,0,0,1.0269,1.0272,1.0473,1.0474,1.0476,1.0596,1.0598,1.0599,1.0633,1.0632,1.0631,1.0631,1.0757,1.0761,1.0766,0,0,0,0,0,0,0,0,0,0,0,0,0,1.0371,1.0273,1.0472,1.0507,1.0512,1.0596,1.0598,1.06,1.0633,1.0632,1.0631,1.063,1.0755,1.0761,1.0767,1.0825,0,0,1.0785,1.0788,0,0,0,0,0,0,0,0,1.0365,1.0379,1.0501,1.0505,1.051,1.0598,1.0572,1.0675,1.0634,1.0587,1.0631,1.063,1.0706,1.0716,1.0741,1.0831,1.0837,1.0786,1.079,1.0792,1.0794,0,0,0,0,0,0,0,1.0358,1.0374,1.0522,1.0502,1.0508,1.0517,1.0531,1.0592,1.0651,1.0591,1.0594,1.0608,1.0708,1.0735,1.0744,1.0839,1.0786,1.0791,1.0795,1.0797,1.0986,1.0987,0,0,0,0,0,0,1.0345,1.0367,1.0518,1.0525,1.0434,1.0522,1.0537,1.0571,1.065,1.0661,1.0609,1.0609,1.0725,1.0737,1.0749,1.0824,1.0792,1.0798,1.0801,1.0985,1.0986,1.0988,0,0,0,0,0,0,1.034,1.0358,1.0513,1.0447,1.0468,1.0526,1.0564,1.0574,1.0601,1.0664,1.0674,1.0626,1.0725,1.074,1.0807,1.0829,1.08,1.0806,1.0983,1.0985,1.0987,1.0975,0,0,0,0,0,0,1.0334,1.0356,1.0378,1.0447,1.0471,1.0568,1.0566,1.0577,1.0611,1.0613,1.0682,1.0693,1.0725,1.0797,1.0813,1.0837,1.0811,1.0981,1.0984,1.0986,1.0973,1.0976,1.0978,0,0,0,0,0,1.0327,1.037,1.0379,1.0397,1.05,1.0569,1.0582,1.0619,1.0613,1.0636,1.0677,1.069,1.0824,1.0804,1.0821,1.0848,1.098,1.0983,1.0986,1.0972,1.0975,1.0978,0,0,0,0,0,0,1.0301,1.0379,1.0391,1.0457,1.0506,1.0574,1.0605,1.0621,1.0673,1.0672,1.0715,1.0731,1.0795,1.0828,1.0804,1.091,1.0903,1.0909,1.0886,1.089,1.0892,1.0883,1.0816,0,0,0,0,0,1.0303,1.0352,1.0418,1.047,1.0494,1.0545,1.0576,1.0601,1.0653,1.0674,1.0719,1.077,1.0824,1.0859,1.0912,1.0978,1.0995,1.1005,1.1008,1.101,1.1015,1.1055,1.1061,1.0998,1.0998,1.0998,0,0,1.0308,1.0357,1.0385,1.0466,1.0507,1.0558,1.0562,1.0615,1.0654,1.0682,1.0748,1.0783,1.0843,1.091,1.0942,1.094,1.1036,1.1014,1.1015,1.1019,1.1059,1.1065,1.107,1.1,1.1,1.0999,0,0,1.0342,1.0383,1.0432,1.0474,1.0536,1.057,1.0581,1.0648,1.0673,1.0739,1.0763,1.0809,1.09,1.0943,1.0976,1.1029,1.1045,1.1045,1.1059,1.1097,1.1102,1.1107,1.1127,1.1134,1.1051,1.1051,1.1051,0,1.034,1.0417,1.0455,1.0508,1.0544,1.0573,1.0623,1.0661,1.0737,1.0762,1.0758,1.0875,1.0917,1.0996,1.1009,1.1035,1.1051,1.1038,1.1098,1.1103,1.1108,1.1128,1.1135,1.105,1.105,1.105,1.105,0,1.0412,1.0465,1.0497,1.0571,1.061,1.0661,1.0708,1.0744,1.0765,1.08,1.0869,1.0921,1.0985,1.1006,1.1027,1.1088,1.1085,1.1089,1.1083,1.1113,1.1133,1.1141,1.105,1.105,1.105,1.105,0,0,1.0433,1.0528,1.0539,1.0574,1.0645,1.0688,1.0741,1.0804,1.0835,1.0887,1.0934,1.1011,1.1016,1.1054,1.1081,1.1114,1.1155,1.1115,1.1117,1.1121,1.1228,1.1225,1.1233,1.1166,1.1167,1.1168,1.1223,0,1.0477,1.0573,1.061,1.0688,1.0739,1.0768,1.0815,1.0864,1.0899,1.0948,1.0986,1.1041,1.1042,1.1066,1.1101,1.1142,1.1177,1.1139,1.1211,1.1213,1.1195,1.1243,1.1239,1.1289,1.1231,1.1233,1.1233,0,1.0541,1.0594,1.0678,1.0745,1.0768,1.0809,1.0871,1.0917,1.0975,1.0998,1.1041,1.1066,1.1124,1.1114,1.1196,1.117,1.1201,1.1227,1.1229,1.1238,1.1225,1.1254,1.1305,1.1313,1.1246,1.1245,1.1244,0,1.0549,1.0641,1.0704,1.0733,1.0812,1.0841,1.0876,1.0933,1.0969,1.1024,1.1048,1.1109,1.1143,1.119,1.1231,1.1219,1.131,1.1303,1.1332,1.1331,1.1349,1.1348,1.1408,1.1369,1.1368,1.1368,1.1368,0,1.0594,1.0645,1.0709,1.0747,1.0806,1.0848,1.0905,1.0942,1.0992,1.1039,1.1068,1.1112,1.1163,1.1214,1.1247,1.1311,1.1326,1.1347,1.1355,1.1345,1.1342,1.1366,1.1364,1.137,1.137,1.137,1.1369,0,1.0613,1.0658,1.0728,1.0799,1.0818,1.0857,1.0918,1.0957,1.0994,1.1053,1.107,1.1127,1.1189,1.1235,1.1314,1.1336,1.1405,1.1413,1.1385,1.139,1.1417,1.1414,1.1495,1.1508,1.1459,1.1459,1.146,0,1.0639,1.0679,1.0754,1.0788,1.0822,1.0876,1.0914,1.0958,1.0997,1.1067,1.1098,1.1162,1.1215,1.1312,1.1362,1.1423,1.1434,1.1458,1.1443,1.1432,1.1436,1.1433,1.1438,1.146,1.146,1.146,1.1461,0,1.0682,1.0702,1.0756,1.0817,1.0862,1.0913,1.0964,1.099,1.1044,1.1086,1.1149,1.1191,1.1273,1.1336,1.1403,1.144,1.146,1.1465,1.1475,1.1465,1.1448,1.1459,1.1392,1.1463,1.1463,1.1462,1.1462,1.1462,1.0706,1.0743,1.0802,1.0861,1.0905,1.0952,1.0993,1.1036,1.1089,1.1159,1.1183,1.1249,1.1308,1.14,1.1438,1.1491,1.1491,1.1505,1.1509,1.1512,1.1512,1.1439,1.1503,1.1503,1.1503,1.1503,1.1503,0,1.0751,1.0791,1.0844,1.0916,1.0963,1.0977,1.1035,1.1074,1.1132,1.1185,1.1237,1.1311,1.1374,1.1429,1.1494,1.1526,1.1537,1.1542,1.154,1.1549,1.1508,1.1493,1.1532,1.1532,1.1532,1.1532,1.1532,1.1532,1.0779,1.0844,1.0872,1.0959,1.0999,1.1064,1.1096,1.1141,1.1184,1.1266,1.1318,1.1353,1.1408,1.1478,1.1536,1.1551,1.1574,1.1577,1.1594,1.1555,1.1551,1.1548,1.1534,1.1581,1.1581,1.1631,1.1631,1.1632]},{"header":{"parameterUnit":"m.s-1","parameterCategory":1,"la1":30.2991,"la2":30.254,"lo1":-89.0895,"lo2":-89.0444,"dy":0.0017,"dx":0.0017,"nx":28,"ny":28,"refTime":"2025-11-21T09:00:00:Z","depth":0,"parameterNumber":3,"parameterNumberName":"V-component_of_WINDS"},"data":[0,0,0,0,0,0,0,0,0,0,0,0,0,0,0,0,0,0,0,0,0,0,0,0,0,0,0,0,0,0,0,0,0,0,0,0,0,0,0,0,0,0,0,0,0,0,0,0,0,0,0,0,0,0,0,0,0,0,0.0499,0.0499,0,0.0455,0.0454,0.0454,0.0435,0.0435,0.0435,0.0435,0.0389,0.0388,0.0386,0,0,0,0,0,0,0,0,0,0,0,0,0,0.0566,0.0565,0.0499,0.0498,0.0498,0.0455,0.0454,0.0453,0.0435,0.0435,0.0435,0.0435,0.0389,0.0388,0.0386,0,0,0,0,0,0,0,0,0,0,0,0,0,0.0531,0.0565,0.0499,0.0484,0.0482,0.0455,0.0454,0.0453,0.0435,0.0435,0.0435,0.0435,0.039,0.0388,0.0386,0.0371,0,0,0.038,0.0379,0,0,0,0,0,0,0,0,0.0533,0.0529,0.0486,0.0485,0.0482,0.045,0.0461,0.0426,0.0435,0.0453,0.0435,0.0435,0.0409,0.0406,0.0397,0.0369,0.0367,0.038,0.0378,0.0378,0.0377,0,0,0,0,0,0,0,0.0536,0.053,0.0481,0.0486,0.0483,0.0478,0.0473,0.0454,0.0431,0.0451,0.045,0.0445,0.0408,0.0399,0.0396,0.0366,0.038,0.0378,0.0377,0.0376,0.0322,0.0322,0,0,0,0,0,0,0.0541,0.0533,0.0483,0.048,0.0509,0.0477,0.0471,0.0461,0.0431,0.0426,0.0445,0.0444,0.0402,0.0398,0.0394,0.0374,0.0378,0.0376,0.0375,0.0322,0.0322,0.0322,0,0,0,0,0,0,0.0542,0.0537,0.0485,0.0506,0.0499,0.0476,0.0464,0.046,0.045,0.0426,0.0422,0.044,0.0402,0.0397,0.0377,0.0372,0.0375,0.0373,0.0323,0.0322,0.0322,0.0334,0,0,0,0,0,0,0.0544,0.0537,0.0532,0.0506,0.0498,0.0469,0.0463,0.0459,0.0447,0.0446,0.042,0.0416,0.0402,0.038,0.0375,0.0369,0.0371,0.0323,0.0322,0.0322,0.0334,0.0334,0.0334,0,0,0,0,0,0.0547,0.0537,0.0532,0.0526,0.0491,0.0468,0.0464,0.0448,0.0447,0.0441,0.0425,0.0417,0.0373,0.0378,0.0372,0.0366,0.0323,0.0322,0.0322,0.0334,0.0334,0.0334,0,0,0,0,0,0,0.0563,0.0533,0.0527,0.0509,0.0491,0.0465,0.0457,0.0449,0.0431,0.0431,0.0412,0.0406,0.0387,0.0374,0.038,0.0349,0.0347,0.0346,0.0358,0.0358,0.0358,0.0362,0.037,0,0,0,0,0,0.0564,0.0549,0.0524,0.051,0.0501,0.0481,0.0471,0.046,0.0441,0.0433,0.0416,0.0398,0.0379,0.0368,0.035,0.0332,0.0325,0.0324,0.0325,0.0325,0.0324,0.0312,0.0311,0.032,0.032,0.032,0,0,0.0567,0.0549,0.054,0.0513,0.0498,0.0482,0.0475,0.0459,0.0446,0.0431,0.0411,0.0397,0.0375,0.0355,0.0346,0.0344,0.032,0.0324,0.0325,0.0323,0.0311,0.031,0.031,0.0319,0.032,0.032,0,0,0.0564,0.0549,0.0535,0.052,0.0498,0.0484,0.0481,0.0456,0.0446,0.0426,0.0414,0.0398,0.0368,0.0353,0.0341,0.0331,0.0322,0.0325,0.0326,0.0315,0.0314,0.0313,0.0309,0.0308,0.0324,0.0324,0.0324,0,0.057,0.0546,0.0529,0.0513,0.0501,0.0486,0.0472,0.0458,0.0431,0.0423,0.0421,0.0382,0.0367,0.0342,0.034,0.0331,0.0326,0.0328,0.0316,0.0315,0.0314,0.0309,0.0308,0.0325,0.0325,0.0325,0.0325,0,0.0554,0.0537,0.0529,0.0503,0.049,0.0475,0.0456,0.0444,0.0434,0.042,0.0399,0.0379,0.0357,0.035,0.0341,0.0325,0.0324,0.032,0.0317,0.0314,0.0309,0.0308,0.0325,0.0325,0.0325,0.0325,0,0,0.056,0.0525,0.0522,0.051,0.0483,0.047,0.0454,0.0432,0.0422,0.0404,0.0389,0.0363,0.0358,0.0345,0.0333,0.0323,0.0315,0.032,0.0319,0.0319,0.0295,0.0299,0.0297,0.031,0.0309,0.0309,0.0297,0,0.0553,0.0524,0.0508,0.0486,0.047,0.0455,0.044,0.0422,0.0409,0.0393,0.0377,0.0359,0.0354,0.0346,0.0336,0.0319,0.031,0.0319,0.0295,0.0295,0.0301,0.0295,0.0299,0.0289,0.0295,0.0295,0.0295,0,0.0541,0.0523,0.0499,0.0473,0.0466,0.0454,0.0432,0.0417,0.0396,0.0386,0.0371,0.0359,0.034,0.034,0.0313,0.032,0.0309,0.0299,0.0298,0.0295,0.0295,0.0292,0.0286,0.0284,0.0292,0.0292,0.0292,0,0.0547,0.0517,0.0498,0.0488,0.0458,0.045,0.0437,0.0416,0.0403,0.0384,0.0375,0.0354,0.0342,0.0326,0.0308,0.0309,0.0283,0.0281,0.0274,0.0275,0.0269,0.027,0.0261,0.0263,0.0263,0.0263,0.0263,0,0.0541,0.0527,0.05,0.0489,0.0472,0.0454,0.0437,0.0423,0.0404,0.0389,0.0375,0.0361,0.0338,0.0321,0.0307,0.0287,0.0282,0.0273,0.027,0.0274,0.0275,0.0267,0.0267,0.0262,0.0263,0.0263,0.0263,0,0.0546,0.0527,0.0506,0.0479,0.0472,0.0461,0.0438,0.0425,0.0411,0.0392,0.0386,0.0363,0.0342,0.0322,0.0295,0.0285,0.0264,0.026,0.0272,0.027,0.0264,0.0264,0.0249,0.0245,0.025,0.025,0.025,0,0.0543,0.0531,0.0503,0.0492,0.048,0.0462,0.0449,0.043,0.0417,0.0392,0.0382,0.036,0.0342,0.0309,0.0289,0.0267,0.0262,0.0257,0.0258,0.0263,0.0261,0.0262,0.026,0.0258,0.0258,0.0258,0.0258,0,0.0539,0.0531,0.0513,0.0492,0.0477,0.0459,0.0441,0.0432,0.041,0.0396,0.0374,0.036,0.0331,0.0309,0.0285,0.027,0.026,0.0258,0.0255,0.026,0.0267,0.0262,0.0272,0.0258,0.0258,0.0258,0.0258,0.0258,0.054,0.0528,0.0507,0.0487,0.0471,0.0455,0.0442,0.0425,0.0407,0.0382,0.0372,0.035,0.0327,0.0294,0.028,0.0261,0.0259,0.0255,0.0254,0.0254,0.0254,0.027,0.0257,0.0257,0.0257,0.0257,0.0257,0,0.0535,0.052,0.0503,0.0477,0.0462,0.0454,0.0433,0.042,0.0401,0.0381,0.0363,0.0338,0.0316,0.0294,0.0271,0.026,0.0255,0.0255,0.0255,0.0252,0.0258,0.0262,0.026,0.026,0.026,0.026,0.026,0.026,0.0531,0.0511,0.05,0.0472,0.0457,0.0436,0.0424,0.0408,0.0392,0.0365,0.0347,0.0333,0.0312,0.0287,0.0266,0.026,0.0252,0.0253,0.0246,0.0252,0.0252,0.0252,0.0256,0.0252,0.0252,0.0241,0.0241,0.0241]}]]